GFSFLT2_700_spd_000.txt.gz
Wind_Speed
62 58 57 56 55 52 52 52 51 48 50 52 48 47 50 47 47 48 48 48 44 49 41 44 45 45 46
60 61 59 57 55 53 51 51 50 51 49 51 50 44 50 53 50 52 52 47 45 41 43 41 48 41 45
57 57 59 57 59 58 55 55 54 52 42 47 52 47 53 53 46 52 63 50 48 51 40 49 43 41 43
48 52 54 54 56 58 57 54 52 56 53 49 59 55 51 57 56 51 58 58 52 52 46 47 40 40 40
51 49 43 48 52 54 53 52 51 51 52 51 52 50 60 58 47 51 60 56 52 50 44 40 38 36 40
52 53 54 56 55 53 53 54 55 50 48 45 42 48 51 57 57 46 51 55 50 50 41 36 35 36 38
52 51 53 54 52 49 52 52 51 48 51 46 46 39 44 49 52 53 51 46 43 38 31 31 34 36 34
46 48 49 50 49 48 48 53 51 49 50 45 35 41 42 44 45 44 46 38 36 29 26 30 32 32 30
42 43 44 44 43 45 44 48 46 48 48 43 40 42 42 41 37 37 35 31 26 25 26 29 29 28 26
38 40 40 40 40 41 42 44 49 47 38 44 39 31 40 38 34 33 28 25 22 24 25 26 25 24 22
40 41 40 40 37 37 44 41 47 39 35 33 32 32 31 31 29 27 26 20 21 22 23 23 23 22 22
35 38 38 36 32 35 39 38 38 36 35 37 33 25 32 30 27 24 19 18 19 22 22 22 21 21 22
32 35 34 35 37 35 33 32 31 29 24 20 17 21 26 23 20 17 17 18 20 19 19 19 20 22 22
33 33 31 31 31 30 25 18 11 8 9 13 14 20 21 18 15 15 18 18 17 18 17 18 20 21 19
30 27 27 25 21 17 11 1 2 5 6 12 16 16 13 12 16 16 17 15 14 15 16 16 18 20 18
27 24 25 21 17 11 9 4 6 8 12 12 12 8 12 13 12 12 12 14 15 16 16 14 17 22 21
27 25 22 18 13 11 15 11 12 11 8 7 9 8 8 8 9 11 14 15 14 14 17 17 17 23 26

GFSFLT2_700_spd_003.txt.gz
Wind_Speed
60 58 59 60 60 58 55 54 52 51 50 51 55 52 46 54 52 53 52 52 52 56 53 50 51 51 49
58 56 57 57 55 56 53 52 52 51 50 50 50 53 53 53 57 56 56 58 57 57 52 56 56 59 51
62 63 59 56 55 49 48 48 50 50 47 47 49 52 54 55 54 55 55 61 60 59 57 61 59 55 53
62 63 61 59 55 53 51 39 39 43 44 46 44 45 48 49 46 53 53 61 57 59 58 54 55 54 54
61 59 59 58 55 53 51 52 59 55 49 50 43 40 43 45 44 48 56 60 60 49 58 60 56 56 56
58 57 56 52 52 52 52 52 54 54 51 53 41 43 37 41 45 47 51 50 50 55 58 50 54 55 55
54 53 52 47 48 50 48 50 53 51 52 55 49 42 40 42 40 45 42 40 40 45 52 52 51 48 43
50 49 49 46 45 46 47 48 50 51 48 50 49 45 43 42 36 34 34 34 37 46 48 45 41 40 39
44 45 43 40 41 42 42 43 49 50 49 48 45 44 36 44 37 37 42 40 39 41 40 40 34 34 27
38 40 38 38 36 36 37 42 46 51 43 45 48 43 46 40 38 39 40 37 34 32 31 33 31 24 22
40 39 37 36 36 36 34 37 38 40 44 46 47 41 46 40 36 38 35 35 32 32 33 29 23 22 25
41 38 36 34 34 34 35 35 36 41 41 44 47 42 43 36 35 28 33 32 31 30 26 18 20 23 23
36 38 34 33 33 34 34 36 38 39 42 38 34 29 27 27 19 21 30 30 28 22 17 18 20 20 19
40 36 36 35 31 30 32 32 25 20 17 17 19 19 17 16 16 25 28 24 15 11 17 18 17 17 20
37 38 38 33 28 27 27 18 7 0 4 5 8 13 19 21 22 19 11 9 13 15 15 15 18 20 22
39 38 35 28 24 21 18 10 6 4 5 8 9 14 17 13 8 8 10 12 13 13 15 18 22 24 23
41 37 31 24 20 15 12 10 7 8 8 12 10 8 7 7 8 10 11 12 14 16 18 18 20 21 20

GFSFLT2_700_spd_006.txt.gz
Wind_Speed
52 50 51 54 54 56 58 59 57 53 49 48 51 52 52 50 48 44 50 61 62 58 50 51 53 56 56
57 57 58 58 59 60 60 59 56 54 44 40 40 47 49 50 50 50 53 51 49 52 55 56 53 55 57
65 63 63 64 65 64 63 62 58 54 48 43 41 45 44 44 45 47 47 50 56 50 58 55 55 55 58
67 67 66 65 66 66 67 60 59 54 49 45 48 48 30 37 41 39 42 43 45 49 53 51 56 56 64
62 63 62 62 62 58 57 57 56 51 48 43 46 49 45 44 47 42 42 41 41 41 44 48 58 52 52
54 54 53 50 48 48 44 47 52 45 44 44 41 42 41 36 39 39 42 39 38 37 44 49 50 60 52
48 46 45 42 38 47 45 45 45 41 40 43 39 41 38 36 37 38 40 43 39 39 30 38 36 52 43
39 33 35 37 43 45 47 46 43 40 38 43 39 40 40 38 35 36 36 39 37 33 30 28 41 46 37
36 35 35 36 38 43 42 43 44 34 32 40 39 42 40 36 34 32 30 29 33 34 29 28 30 43 40
32 31 32 33 36 40 42 37 37 36 31 36 37 36 37 34 30 31 33 29 29 38 32 27 38 44 39
34 32 32 36 36 39 34 34 33 35 34 36 37 34 32 31 31 32 35 33 30 31 32 38 39 39 36
33 32 33 33 38 36 31 31 33 36 37 38 41 37 34 34 35 38 35 32 33 33 36 35 33 31 34
32 32 35 38 40 36 32 32 31 31 32 33 36 36 34 34 31 28 27 30 34 32 31 29 29 32 30
32 35 37 41 40 36 34 27 25 24 24 22 24 25 25 22 20 19 19 26 27 26 27 31 28 22 21
33 36 41 43 38 32 25 20 16 14 11 5 4 8 10 10 10 15 16 21 24 26 25 18 16 21 23
34 41 45 41 32 21 15 11 8 4 1 3 4 7 7 9 18 22 23 22 16 12 15 20 22 22 22
41 42 37 28 20 12 6 4 3 3 4 4 8 14 16 13 10 13 14 15 17 18 18 18 19 19 20

GFSFLT2_700_spd_009.txt.gz
Wind_Speed
59 59 60 59 58 57 55 55 54 54 55 54 51 48 52 50 49 53 56 55 54 55 53 63 58 55 51
62 62 62 62 63 62 61 60 61 60 60 59 57 51 46 47 50 48 51 54 51 54 51 55 60 64 56
62 61 62 62 64 63 63 63 64 65 65 64 62 54 45 46 47 48 49 49 48 46 46 46 52 48 62
57 58 57 57 55 57 60 57 61 62 64 65 61 51 46 43 48 51 45 46 38 42 43 43 42 50 52
50 48 49 48 46 45 47 46 46 40 40 43 46 38 41 42 47 49 49 49 41 36 40 41 44 43 43
45 48 47 43 40 34 36 38 44 36 41 40 34 32 34 38 38 42 40 39 44 45 40 41 39 43 46
46 45 47 43 38 34 43 41 42 41 43 45 28 31 25 27 29 33 37 38 40 42 41 41 43 40 42
43 45 44 39 37 40 42 44 42 39 43 43 31 27 27 25 26 29 33 34 38 39 43 42 38 33 34
39 38 34 30 30 32 33 38 40 41 39 33 28 25 24 20 21 24 28 27 31 37 38 36 38 33 28
36 30 27 25 25 27 33 37 41 41 31 29 26 28 25 21 20 20 23 22 23 26 27 32 28 28 31
34 31 27 25 27 29 33 37 37 32 27 28 27 25 26 24 19 16 14 18 10 20 17 22 18 21 24
33 30 28 28 28 32 36 36 32 31 26 24 27 26 27 24 21 18 16 18 12 12 15 17 24 25 33
31 30 31 32 34 38 40 34 30 24 23 22 24 24 25 23 21 19 20 16 15 16 17 22 27 31 31
32 33 35 37 39 40 35 27 21 17 16 16 17 19 18 18 18 20 20 19 20 24 26 26 23 22 24
33 37 39 40 34 29 23 17 13 9 7 5 5 6 7 12 16 18 19 18 20 27 25 22 23 23 28
37 38 33 29 26 17 12 9 7 3 2 6 9 8 5 9 17 18 18 17 21 21 23 23 25 26 24
32 27 26 21 17 13 9 6 5 8 11 11 10 14 15 19 26 24 19 21 21 24 27 26 20 18 19

GFSFLT2_700_spd_012.txt.gz
Wind_Speed
61 59 59 60 61 61 62 63 62 58 55 54 56 56 55 52 51 51 48 52 51 53 49 53 54 52 54
55 55 54 53 53 53 56 56 58 60 57 57 57 57 57 56 55 53 52 49 52 52 53 49 52 49 50
47 43 44 47 49 47 48 49 48 49 50 52 53 55 57 58 56 52 52 49 49 54 50 51 48 51 50
42 43 43 44 48 52 54 49 45 40 40 40 42 41 43 48 53 57 53 51 51 52 50 52 48 48 47
42 44 46 49 50 49 45 48 45 38 36 33 33 34 37 38 43 48 45 47 50 54 52 48 49 47 43
45 50 53 52 49 48 48 47 47 35 38 39 34 39 36 36 40 42 44 46 49 54 57 52 44 38 38
51 54 53 46 45 44 42 38 40 35 36 40 34 34 32 34 34 38 44 49 50 52 54 50 47 44 38
50 46 42 42 40 40 38 37 35 31 30 39 38 40 32 26 26 27 31 42 46 47 49 45 43 40 41
40 38 37 36 35 34 33 36 37 36 36 40 40 33 25 21 19 18 25 31 37 41 42 42 39 38 43
36 35 33 32 31 31 33 38 38 42 36 39 33 27 24 16 14 13 16 23 30 33 36 37 39 39 42
38 36 34 32 30 30 32 35 40 42 38 35 33 23 20 17 8 10 14 15 22 28 28 28 31 31 33
36 34 33 32 31 32 33 35 38 40 34 29 28 23 20 17 11 12 11 11 15 20 21 24 22 21 23
35 35 35 37 38 37 35 32 30 26 23 22 21 19 19 17 12 14 18 17 14 14 16 15 18 21 17
37 38 39 37 32 29 29 24 19 14 13 13 13 14 15 14 13 17 22 22 12 12 10 14 23 28 27
37 36 30 28 26 23 19 13 11 9 7 7 5 5 8 11 14 20 29 31 23 19 16 20 24 22 24
29 26 27 25 21 15 12 11 10 7 4 3 6 7 3 10 15 21 26 27 25 22 20 20 21 20 21
23 23 22 19 16 16 13 10 9 10 11 10 12 15 14 17 20 20 21 18 21 22 19 17 17 24 29

GFSFLT2_700_spd_015.txt.gz
Wind_Speed
56 54 53 51 52 48 47 45 48 47 47 47 48 51 53 55 54 53 53 54 55 56 53 52 47 45 41
51 48 48 48 49 49 50 49 51 50 49 49 46 43 46 49 49 51 52 52 54 52 50 46 46 45 41
48 47 45 44 47 50 53 53 53 50 47 45 45 44 40 40 41 43 47 51 53 52 49 47 45 43 45
46 43 44 45 48 54 60 55 52 48 49 46 44 42 37 37 34 35 38 47 51 52 51 49 47 45 44
45 46 47 49 56 57 57 54 51 48 46 41 39 36 36 35 36 37 36 41 46 50 51 48 47 47 45
46 52 55 59 55 52 50 50 53 41 41 38 32 31 31 34 34 35 37 41 46 45 47 49 49 47 46
52 56 61 53 48 48 47 46 46 41 39 38 32 32 32 33 34 33 36 37 42 44 44 44 46 47 47
52 57 51 43 41 43 44 45 43 40 37 43 38 39 40 38 34 30 28 31 35 39 45 48 48 47 47
44 42 38 37 37 39 40 42 44 42 36 43 42 43 42 30 22 19 23 26 32 37 42 46 49 47 47
37 36 36 35 35 36 39 42 45 49 40 44 43 42 40 25 13 13 18 20 25 34 33 36 41 41 43
38 37 37 36 36 37 38 41 46 49 43 42 42 37 31 26 9 7 12 8 6 12 20 24 28 32 34
38 39 40 40 40 38 35 35 35 38 35 30 31 28 25 20 10 4 10 8 8 4 9 17 20 25 28
40 42 41 38 34 32 30 28 26 24 23 20 20 20 19 16 7 5 11 13 11 3 11 14 17 16 17
41 37 33 31 28 27 27 24 21 16 15 14 14 15 14 12 7 11 17 16 10 6 4 12 19 17 13
31 30 28 26 25 21 20 20 19 18 15 12 9 10 10 7 9 15 20 19 14 5 1 9 17 21 25
26 26 26 24 22 19 18 18 17 15 14 11 9 5 2 6 11 18 21 18 15 11 11 16 22 24 25
23 22 21 20 19 19 18 17 13 12 15 16 16 12 10 10 13 16 21 18 15 12 10 10 15 19 20

GFSFLT2_700_spd_018.txt.gz
Wind_Speed
59 56 54 54 53 51 50 48 47 47 47 45 47 48 49 46 44 43 41 46 52 55 55 55 58 60 54
56 54 53 52 52 51 50 48 50 52 54 54 51 48 46 46 45 42 40 39 40 41 49 49 51 54 50
56 54 54 51 51 52 51 52 53 59 57 49 46 45 45 45 45 43 37 33 38 40 41 43 50 50 45
51 56 52 49 50 52 59 57 59 54 46 44 43 40 39 40 40 39 36 39 42 43 40 47 48 47 45
53 54 56 59 60 61 61 58 53 47 45 40 38 35 32 31 31 34 37 40 42 43 42 43 47 47 45
53 59 62 61 55 51 52 50 51 43 43 39 36 32 30 28 28 27 29 39 42 43 42 42 45 44 44
58 52 48 48 48 47 44 46 46 43 43 44 36 35 33 33 32 34 36 37 38 40 40 40 41 43 43
46 41 43 41 39 42 44 46 45 42 40 46 41 41 38 39 38 39 34 30 29 34 39 37 37 42 45
38 35 35 36 38 41 42 45 47 46 42 46 46 46 43 40 33 19 15 21 30 32 33 35 34 39 45
35 35 35 37 36 36 39 43 45 50 42 43 44 41 43 32 25 18 15 20 24 25 26 27 28 36 44
38 38 39 38 36 33 32 35 40 42 34 36 37 34 32 33 20 9 8 10 15 15 9 9 15 20 30
39 40 38 34 32 31 30 29 29 32 29 26 29 28 28 23 15 5 4 4 4 3 6 3 8 13 17
38 34 34 33 30 28 25 26 25 23 24 24 24 22 20 18 11 3 3 4 11 12 9 6 3 10 14
32 32 31 29 26 25 25 24 23 23 22 21 17 15 12 11 5 3 6 10 13 15 8 7 8 12 13
28 29 28 26 23 22 21 22 23 23 23 18 15 13 10 4 4 7 8 9 12 12 12 8 12 11 11
28 29 27 25 23 21 20 20 20 19 21 21 19 12 6 7 11 12 12 12 13 11 11 10 14 15 17
27 26 26 24 22 20 20 22 22 23 22 20 21 16 13 14 18 18 18 17 15 13 11 19 26 26 26

GFSFLT2_700_spd_021.txt.gz
Wind_Speed
59 60 60 60 57 53 52 50 49 46 44 37 42 45 49 52 51 50 46 43 44 46 45 45 45 45 49
60 61 59 59 57 56 55 51 50 50 54 53 50 53 50 47 46 44 46 47 47 45 43 45 42 36 40
58 56 57 58 58 60 60 60 60 57 55 50 48 42 40 41 44 46 46 44 47 45 45 34 37 40 43
49 52 55 58 61 63 58 51 49 45 43 39 37 36 35 36 37 38 39 40 40 41 41 40 42 44 43
50 55 58 60 56 52 49 48 42 41 41 35 36 33 31 31 32 33 34 34 34 34 36 39 42 44 44
52 58 59 53 46 45 46 46 47 40 41 37 36 33 32 30 30 32 34 37 36 36 37 42 45 45 46
56 51 50 42 43 45 44 45 47 45 44 46 39 40 35 35 34 36 36 37 39 41 43 45 47 48 44
46 43 40 39 41 44 47 49 47 45 41 46 39 40 36 35 32 35 34 36 39 42 42 42 45 46 43
35 34 35 38 41 44 42 43 42 38 32 40 38 40 37 33 25 21 21 23 28 34 38 42 41 41 41
33 34 36 36 31 30 33 36 38 39 31 38 37 35 36 25 19 18 18 19 25 28 29 32 32 36 39
38 37 30 30 30 30 29 31 33 35 34 34 35 32 31 27 14 12 15 13 14 17 20 20 22 29 40
32 29 30 32 31 30 27 25 26 30 30 28 30 28 24 18 12 8 11 10 14 12 10 5 14 23 37
30 30 31 31 28 27 26 26 24 22 24 26 26 20 17 14 12 8 7 8 14 18 13 5 9 17 30
30 30 29 27 25 26 26 26 24 20 21 23 22 16 10 8 10 9 11 17 20 21 7 10 11 16 20
29 28 26 26 25 24 23 23 23 26 24 20 18 11 8 8 13 15 18 19 20 20 14 12 16 16 17
27 27 28 27 26 24 23 22 24 25 25 22 18 14 13 17 21 22 21 20 16 18 15 10 9 13 13
28 29 28 25 23 23 22 22 21 24 23 21 19 16 18 22 23 26 21 19 14 12 22 30 29 20 14

GFSFLT2_700_spd_024.txt.gz
Wind_Speed
60 59 61 62 62 61 58 56 54 52 54 50 49 48 47 50 51 52 52 51 50 48 45 44 43 45 49
61 61 61 61 62 60 56 56 60 57 51 47 43 42 43 44 46 48 50 48 42 41 41 47 48 51 49
59 58 58 55 56 54 56 57 55 48 43 40 37 37 37 37 38 38 39 46 48 51 51 49 48 45 45
52 53 50 52 56 62 58 51 46 42 38 35 38 36 34 35 37 39 42 44 44 43 42 42 43 45 45
46 48 50 57 60 54 50 46 43 42 42 41 40 36 34 34 35 37 39 40 41 40 40 36 36 37 37
46 53 57 54 48 43 45 47 51 43 45 44 41 37 36 35 35 36 37 40 42 43 43 44 42 41 36
54 51 48 41 43 45 46 49 50 44 42 42 37 39 35 34 31 31 35 38 41 45 48 48 47 44 41
43 40 38 39 42 44 45 45 45 40 39 42 35 38 34 32 25 29 33 32 34 36 38 44 48 48 46
33 34 37 37 35 37 38 40 41 36 29 38 36 39 36 25 18 20 26 29 30 34 35 36 41 42 49
35 32 28 28 28 30 34 38 39 38 29 38 38 39 40 22 16 17 22 22 26 29 30 31 31 38 49
32 29 28 29 29 30 31 33 35 36 32 34 38 36 35 26 13 15 18 15 18 21 23 26 30 30 32
29 29 30 29 29 29 29 28 28 31 31 31 36 34 30 20 15 10 14 16 22 19 18 17 16 19 23
29 29 29 29 29 29 27 27 26 25 26 28 30 26 19 15 14 15 17 16 24 29 26 19 10 3 18
29 29 30 29 28 29 29 28 26 23 23 24 23 16 11 12 16 18 20 26 26 28 23 8 5 4 13
30 32 30 28 25 25 26 26 25 27 23 19 15 12 13 14 17 22 24 25 24 23 18 12 6 7 17
31 30 28 27 25 22 24 25 24 23 23 19 13 13 15 18 23 28 23 18 22 22 13 11 12 10 17
27 25 28 26 24 21 21 23 21 20 20 17 14 15 17 20 25 26 24 22 16 24 25 18 22 19 14

GFSFLT2_700_spd_027.txt.gz
Wind_Speed
69 67 67 67 65 62 59 57 53 50 52 52 50 49 46 43 41 41 44 52 51 53 55 57 59 58 55
68 66 62 58 58 57 55 51 52 59 56 49 45 39 39 41 41 42 44 44 47 51 50 50 46 46 47
62 58 55 53 53 52 53 58 62 57 47 43 39 39 39 40 39 40 42 43 42 41 42 45 46 47 47
55 53 49 52 55 59 59 54 50 44 43 39 41 42 41 41 41 41 43 45 46 46 46 48 49 50 51
49 50 54 57 55 50 50 48 46 45 46 41 39 38 35 35 37 39 43 44 44 44 44 44 44 44 42
51 53 52 48 44 44 48 50 49 40 45 35 36 36 34 33 31 33 37 39 42 45 46 47 47 46 44
48 43 42 41 44 45 42 44 45 41 44 42 36 35 31 31 29 30 35 38 42 43 45 48 50 50 51
37 38 40 39 37 40 44 45 43 38 39 44 37 34 33 29 27 28 32 37 42 42 42 42 45 47 49
33 32 30 32 36 40 41 43 42 37 31 41 38 41 37 28 20 18 27 34 36 36 35 34 35 36 40
27 27 30 31 30 31 35 40 42 41 34 42 42 44 42 27 16 16 20 22 26 28 30 30 31 34 37
31 30 29 29 30 31 33 36 39 40 36 38 41 39 36 24 13 16 19 21 24 26 27 30 34 36 39
31 30 32 32 31 30 29 31 32 34 34 34 37 33 26 20 18 17 20 22 25 25 26 29 28 29 34
31 32 33 32 30 28 24 28 28 27 28 29 28 22 20 22 25 25 27 27 30 29 29 31 27 13 15
33 32 28 28 28 27 25 28 26 22 22 24 20 17 17 21 26 27 28 35 37 33 29 23 16 13 7
31 26 26 28 26 26 24 25 26 26 22 15 15 17 19 23 27 30 31 28 29 27 24 16 15 14 15
25 24 26 27 27 25 24 23 23 22 19 16 14 14 16 22 28 33 34 33 32 27 16 12 13 11 13
24 22 25 25 26 25 23 21 19 17 17 14 14 14 18 23 23 26 31 36 34 33 23 15 13 11 13

GFSFLT2_700_spd_030.txt.gz
Wind_Speed
70 67 65 62 61 58 54 51 49 47 47 48 51 50 45 41 41 41 41 39 40 39 42 43 47 52 54
66 61 57 55 53 51 49 48 49 46 42 42 41 42 43 42 42 41 41 41 44 43 46 47 44 48 56
60 54 52 51 49 49 49 46 44 43 43 42 41 41 41 42 44 44 45 46 46 45 45 43 41 41 41
52 52 52 48 48 48 49 45 45 42 36 34 37 37 37 39 40 41 42 44 45 46 48 48 47 46 46
49 51 47 44 43 46 48 42 37 42 39 34 37 34 32 32 33 34 37 39 41 43 46 47 48 48 46
48 44 42 43 43 40 41 44 43 39 42 38 38 36 34 32 31 32 33 35 39 41 44 46 46 46 46
42 39 42 38 38 40 40 41 41 41 44 42 38 37 35 32 30 31 32 36 39 40 41 44 44 44 45
35 34 33 35 37 40 41 44 43 41 43 45 41 39 35 29 24 24 30 35 35 34 33 36 39 41 43
27 28 30 33 36 40 40 44 43 39 36 45 42 42 34 19 13 20 23 24 25 26 28 30 32 34 37
27 27 30 31 32 36 38 39 39 41 37 44 42 42 28 20 16 18 19 20 24 28 31 32 33 36 39
30 31 32 32 30 30 31 33 34 38 37 40 39 33 29 27 21 23 24 21 23 27 28 28 29 35 39
32 32 32 27 27 28 28 26 29 34 34 33 32 27 27 27 31 30 31 29 30 33 30 26 26 28 34
32 32 26 26 28 28 25 25 24 26 27 27 22 21 24 30 35 38 41 36 34 34 33 30 26 26 26
31 28 23 24 25 27 28 28 25 19 21 20 19 20 22 26 30 36 40 45 43 39 31 27 19 24 18
30 25 22 24 24 28 28 27 27 24 15 10 14 16 19 22 26 34 41 44 43 38 25 17 18 20 13
28 24 24 25 28 27 27 26 25 20 17 14 13 11 13 19 29 36 39 42 42 36 23 20 18 23 24
26 24 24 26 28 27 26 24 20 18 16 15 16 19 20 22 28 34 37 41 40 34 25 24 22 25 25

GFSFLT2_700_spd_033.txt.gz
Wind_Speed
66 64 62 60 55 50 49 47 45 38 37 37 37 39 41 41 42 43 44 45 44 41 41 42 43 44 46
62 59 56 51 48 45 43 40 38 39 37 33 35 36 38 41 42 42 43 45 45 45 43 42 42 47 46
57 53 50 45 44 42 43 40 38 35 31 33 36 34 36 38 40 41 42 42 45 45 47 48 47 44 42
51 49 46 42 41 44 43 34 37 35 28 33 32 32 34 35 36 37 38 40 41 42 42 43 45 47 46
47 47 41 40 41 39 39 38 34 39 33 32 36 34 34 33 35 36 37 39 39 38 39 40 42 43 45
45 41 39 39 35 38 40 41 40 38 43 33 37 35 37 34 34 35 36 38 39 39 39 38 39 41 42
39 36 37 34 37 38 38 42 42 42 43 38 35 36 34 30 28 32 34 34 33 31 29 30 31 34 37
31 31 32 34 36 40 42 44 40 36 36 41 38 35 25 16 19 24 27 28 27 27 25 25 24 26 29
26 28 30 32 37 40 38 41 40 32 29 39 34 32 15 10 15 20 24 26 28 30 29 29 29 30 33
24 27 31 32 32 31 33 36 38 33 32 38 33 29 12 18 22 24 24 27 27 27 28 28 30 34 38
26 29 31 31 25 26 28 31 34 33 33 36 32 24 25 28 22 27 32 35 33 28 27 27 29 31 37
29 31 31 26 23 25 26 28 29 32 31 29 28 25 25 25 29 30 33 37 41 36 27 23 24 28 29
31 31 30 24 24 26 26 28 25 26 26 25 23 23 23 25 33 35 41 42 42 38 26 21 21 23 25
32 31 27 23 23 28 30 29 26 19 20 21 19 21 22 23 30 36 37 43 46 36 24 22 25 25 25
28 26 24 23 24 27 28 27 27 25 18 15 16 18 21 28 30 32 35 39 43 29 21 25 19 15 11
24 26 27 27 27 26 28 27 26 23 23 18 15 14 17 17 28 31 33 37 38 23 19 25 15 17 16
27 29 29 28 28 27 27 26 24 22 21 19 19 21 22 23 23 28 32 34 33 20 21 27 18 17 18

GFSFLT2_700_spd_036.txt.gz
Wind_Speed
62 61 60 59 57 52 49 48 42 39 38 37 37 37 38 39 40 40 41 42 43 44 47 46 44 44 45
62 59 56 55 51 49 46 42 40 38 31 32 36 36 37 39 39 39 40 41 42 43 43 45 45 42 44
60 54 54 51 47 45 43 41 36 34 32 33 36 35 37 38 39 40 41 43 42 43 43 44 44 46 48
52 53 52 46 44 43 43 34 37 36 32 38 36 36 35 34 36 39 41 43 44 45 45 42 42 41 42
49 49 47 42 41 39 39 40 35 42 38 33 32 30 29 33 37 39 42 42 41 41 41 40 40 41 40
46 47 41 39 38 36 40 42 45 36 41 30 31 27 31 31 34 36 32 28 27 27 28 29 30 33 36
44 40 39 34 37 37 38 41 43 37 39 34 29 30 29 26 26 25 26 28 30 31 30 29 27 27 28
36 34 32 33 35 39 41 40 35 34 37 39 31 30 20 14 16 18 20 22 26 29 32 33 33 30 28
31 29 28 31 35 39 37 37 37 33 28 38 31 31 18 9 12 16 19 24 28 32 34 33 33 35 37
25 26 29 31 33 36 33 34 36 37 32 38 33 34 19 6 11 19 22 27 34 37 38 38 34 35 38
25 27 30 32 32 32 30 33 35 36 33 37 34 31 29 28 19 22 29 33 38 38 38 31 28 31 37
27 29 32 31 29 27 27 30 33 35 33 31 35 32 30 30 31 29 31 35 39 40 34 26 24 26 31
30 31 30 29 27 27 26 30 30 28 29 29 31 30 29 30 36 35 39 39 35 37 27 25 31 33 35
30 28 28 28 27 30 31 30 29 24 22 26 27 27 27 28 32 35 34 37 34 32 29 27 35 30 32
26 28 30 30 28 28 29 28 28 29 24 21 22 23 22 27 29 29 31 30 30 31 28 29 28 27 26
27 30 31 30 27 25 27 28 28 27 26 24 21 18 17 16 24 28 27 30 27 25 24 26 30 26 24
27 28 28 27 28 27 27 27 25 26 24 25 23 23 22 20 15 24 29 29 26 23 20 22 25 26 25

GFSFLT2_700_spd_039.txt.gz
Wind_Speed
58 58 58 59 58 55 52 49 46 42 40 38 37 38 37 39 39 38 38 38 38 39 41 42 42 41 40
60 58 56 54 53 52 48 46 42 39 35 31 36 35 39 41 42 42 41 40 41 41 42 42 44 44 44
60 55 53 51 50 47 46 43 40 34 33 32 37 37 41 40 40 39 40 41 41 42 43 42 43 43 44
54 52 51 49 46 46 43 40 35 34 35 34 40 36 34 33 32 34 38 40 37 32 30 30 31 33 36
50 49 48 46 43 42 41 38 35 35 43 32 36 31 28 26 30 35 36 31 23 21 21 23 24 26 27
46 47 45 42 39 39 37 40 42 32 42 28 33 26 25 26 29 33 27 21 20 21 23 24 26 27 29
44 43 42 37 37 36 36 38 40 37 37 33 30 25 26 23 28 26 21 20 20 23 27 29 32 33 33
40 39 36 33 34 37 39 40 37 34 34 41 32 30 25 21 21 19 20 21 24 28 31 36 39 40 40
34 33 30 30 32 37 38 40 39 31 29 39 37 34 27 18 16 18 21 23 26 31 36 39 42 44 45
27 27 28 29 31 34 37 38 37 33 29 39 39 40 33 18 10 16 21 23 28 32 37 40 42 43 39
28 27 29 31 31 30 31 33 35 36 32 39 39 36 38 34 19 16 20 23 28 32 35 37 35 28 30
28 29 30 28 26 29 30 31 33 35 33 33 38 37 37 34 31 20 22 26 29 34 36 34 28 25 31
28 27 26 28 29 30 28 29 27 27 29 31 34 35 34 34 34 27 31 26 29 33 32 32 29 29 33
27 27 29 30 30 30 29 28 27 22 22 28 31 32 33 30 30 30 29 35 34 31 33 31 28 29 31
29 31 32 32 29 28 28 27 28 29 26 25 25 27 28 29 30 27 31 30 30 32 33 33 24 28 29
30 32 33 32 30 26 27 28 29 27 28 30 30 26 21 18 25 27 29 31 28 30 27 29 24 21 24
30 30 30 29 29 28 29 30 28 27 27 29 29 28 28 24 14 17 30 29 30 25 25 23 23 23 27

GFSFLT2_700_spd_042.txt.gz
Wind_Speed
55 57 58 58 58 57 54 52 49 46 43 38 36 37 37 35 36 37 35 38 38 39 39 40 40 41 40
58 58 58 56 56 55 51 48 45 40 36 33 30 37 34 38 40 39 40 39 38 38 38 37 37 38 41
58 57 55 52 52 50 46 43 39 35 31 29 33 35 37 39 39 38 38 37 36 34 33 34 34 35 35
55 52 50 47 45 44 43 37 34 30 29 30 36 34 32 33 33 34 35 35 34 32 29 25 24 23 23
51 49 46 43 41 40 39 37 30 29 35 29 35 30 28 28 29 29 34 35 32 26 20 19 20 21 21
47 45 42 39 38 37 36 35 34 29 39 32 34 29 28 27 26 27 34 31 27 20 20 19 20 21 24
42 40 40 36 37 35 32 34 34 36 42 39 32 29 26 25 25 26 32 29 25 22 23 23 26 28 32
36 36 35 32 32 36 36 37 35 34 36 43 31 29 26 25 21 23 27 27 26 26 27 28 30 34 38
30 30 30 30 31 36 35 37 36 32 27 38 33 32 28 21 18 17 24 27 28 29 30 31 34 38 41
23 25 28 29 30 33 34 36 37 36 28 36 35 37 34 23 19 14 21 25 27 29 30 32 34 38 40
27 28 28 28 26 27 30 35 36 35 30 35 36 34 37 37 26 19 17 21 27 27 27 29 31 34 39
28 26 27 26 27 29 30 32 32 33 30 31 35 36 38 39 34 22 18 19 23 24 27 27 28 32 33
26 25 27 29 29 30 28 29 27 25 28 30 33 34 37 37 38 29 27 21 20 24 27 28 30 30 33
28 29 29 30 28 30 29 27 26 22 23 28 30 33 36 34 34 32 29 31 26 25 30 28 26 27 32
29 31 31 31 28 29 27 27 29 31 27 24 27 30 31 32 30 26 29 29 27 27 29 31 24 25 28
30 32 33 32 31 27 28 30 31 30 30 31 32 31 26 21 26 28 26 28 26 27 28 33 27 20 26
31 31 32 31 32 31 29 30 30 29 27 29 31 32 32 26 18 25 32 29 30 27 28 27 28 23 25

GFSFLT2_700_spd_045.txt.gz
Wind_Speed
53 53 55 56 57 58 57 56 54 50 48 44 42 44 44 41 42 38 37 36 38 39 40 40 40 40 39
56 56 57 58 58 57 54 51 48 43 40 37 34 36 35 36 36 39 39 39 40 40 39 37 36 36 36
58 58 57 54 54 51 49 45 41 37 33 31 31 31 33 36 38 39 38 38 37 36 35 33 32 33 35
58 57 55 51 48 48 45 40 35 30 29 26 30 30 33 35 37 36 36 38 37 35 31 31 31 33 32
56 54 51 47 45 43 41 38 29 26 29 27 32 32 31 33 34 32 34 37 38 35 32 31 30 28 26
51 50 46 43 40 39 38 35 32 23 32 35 32 33 31 31 30 31 33 35 37 34 30 28 28 27 27
47 42 40 36 36 36 35 35 34 31 37 42 31 34 31 29 28 29 31 33 35 33 31 28 29 29 30
35 33 33 32 34 37 39 41 38 32 34 43 37 35 31 27 25 26 27 29 33 34 31 29 29 30 31
27 28 30 31 33 38 36 38 37 32 31 40 36 36 29 23 20 20 24 26 32 35 33 31 30 32 34
23 25 28 29 29 32 35 38 39 39 28 36 35 36 32 23 21 21 23 24 29 34 35 34 33 35 36
26 26 26 26 26 28 31 35 37 36 28 35 36 35 38 39 29 27 23 22 25 30 33 34 35 36 39
27 26 26 26 26 28 29 31 32 34 31 31 37 37 40 41 38 30 25 22 22 24 28 32 33 35 36
28 27 28 30 29 31 28 30 27 25 29 32 35 36 37 39 42 34 31 23 21 22 25 28 30 32 35
31 31 31 32 30 30 31 29 28 24 25 29 33 34 36 36 37 35 29 31 28 27 26 24 27 29 32
30 31 31 32 32 29 30 31 31 30 28 25 27 31 32 34 33 30 29 28 27 28 27 25 24 26 30
29 31 32 32 32 31 32 31 31 30 30 29 31 31 28 24 28 26 25 28 27 26 27 31 26 21 27
29 30 31 32 33 32 31 30 29 29 27 28 30 32 34 30 21 26 33 31 33 31 29 28 31 21 24

GFSFLT2_700_spd_048.txt.gz
Wind_Speed
54 53 54 54 54 57 59 61 61 59 58 56 54 51 50 50 48 45 43 42 40 39 39 39 42 42 43
55 56 57 57 60 61 59 58 57 53 51 48 46 46 44 44 42 41 41 40 39 39 41 41 42 43 43
57 58 60 59 60 58 57 52 48 44 41 38 39 40 39 39 40 41 40 42 42 39 39 37 37 38 39
58 61 60 57 55 55 53 46 43 36 32 35 34 34 34 38 41 41 43 44 42 39 38 36 34 33 33
59 59 56 53 49 46 44 41 36 30 30 36 33 36 34 38 39 39 41 42 41 38 38 37 34 34 33
55 52 48 43 39 39 40 39 40 32 34 38 35 35 35 36 34 36 37 38 39 38 37 38 36 35 34
47 41 38 38 39 39 39 39 38 32 34 40 32 34 33 34 32 34 33 35 39 38 37 37 37 34 33
35 34 36 35 36 38 38 40 38 35 33 42 38 36 34 30 28 28 28 32 34 36 37 37 36 34 34
31 31 33 33 34 37 37 40 39 39 32 40 40 37 34 27 22 20 24 27 30 35 37 37 35 35 33
24 26 28 30 31 34 37 41 41 41 33 39 38 37 37 27 22 21 24 24 29 34 36 36 36 37 34
26 26 27 28 29 31 35 38 38 38 34 38 40 37 41 41 36 30 28 26 29 30 31 33 35 37 37
27 28 30 30 30 31 33 34 35 35 35 35 40 40 43 44 44 34 28 28 30 26 26 28 32 36 38
28 29 31 32 32 34 33 32 32 30 32 35 37 39 40 41 43 36 34 27 24 25 24 25 28 33 37
29 30 31 32 33 34 35 35 34 28 25 29 32 36 38 37 39 35 30 33 28 27 28 27 26 27 31
30 31 32 33 33 34 34 33 33 31 27 24 27 32 34 36 35 31 32 30 28 30 31 28 22 22 26
29 31 33 33 33 32 33 32 31 29 28 27 29 30 29 25 29 27 23 28 26 26 26 28 20 16 23
29 30 31 32 33 32 31 30 29 29 27 27 28 31 34 33 25 27 35 32 33 31 30 31 30 21 25

GFSFLT2_700_spd_051.txt.gz
Wind_Speed
54 52 52 52 52 54 56 60 62 62 62 62 62 60 58 56 54 52 50 48 46 44 42 39 38 37 38
52 52 54 54 56 60 61 61 60 57 54 52 51 49 48 47 47 47 47 47 44 43 40 39 39 40 40
52 54 55 57 60 61 60 58 53 46 41 41 40 40 41 43 45 45 45 45 44 44 41 41 41 41 41
52 56 59 58 58 59 57 48 42 37 36 39 38 39 40 42 45 46 47 47 48 47 46 42 41 40 40
55 57 56 56 53 49 44 42 39 36 36 38 38 38 36 38 41 43 44 46 47 47 45 41 40 39 39
55 55 53 48 42 40 41 40 40 36 35 35 35 35 34 35 36 37 39 42 42 42 40 37 37 37 37
52 48 43 37 39 39 39 39 40 38 39 38 38 37 36 34 33 33 35 36 36 36 36 35 33 35 35
41 36 35 35 36 38 40 42 42 41 41 42 41 40 38 34 29 29 28 29 32 34 35 35 34 34 34
29 30 31 33 36 39 40 43 43 42 42 43 41 42 39 35 28 23 23 27 30 32 35 38 38 36 35
24 26 29 32 34 37 40 43 44 44 41 44 43 44 43 38 31 27 26 27 29 31 35 37 38 38 36
23 25 27 29 31 34 36 39 40 40 35 39 42 42 43 45 38 30 28 26 28 29 31 34 36 36 35
23 25 28 29 31 33 34 36 38 38 35 37 42 41 42 43 42 34 29 28 29 28 29 30 31 32 33
23 25 28 31 32 34 34 36 35 33 32 34 37 38 39 41 43 37 35 30 25 27 27 26 26 28 30
23 26 29 30 31 35 35 34 33 28 26 29 33 36 38 38 40 37 32 34 30 28 30 27 26 27 28
25 27 28 30 31 32 32 31 31 30 26 25 28 31 33 35 34 32 31 28 27 29 29 28 24 24 25
25 27 29 31 31 29 31 31 30 28 28 29 30 31 30 28 32 28 22 27 25 25 27 29 22 18 21
24 26 29 30 32 32 31 30 28 28 28 29 31 35 37 34 25 29 36 34 35 33 30 29 27 20 23

GFSFLT2_700_spd_054.txt.gz
Wind_Speed
44 45 46 47 47 49 51 53 55 57 59 60 60 58 56 54 51 49 47 46 44 43 43 43 43 41 39
44 44 45 46 48 50 53 56 58 56 55 53 51 47 46 45 45 45 45 43 43 43 43 42 41 39 39
46 45 46 48 51 53 56 55 54 49 45 43 43 41 40 41 43 44 43 43 44 45 46 47 45 43 40
44 46 48 51 53 54 55 51 46 38 37 39 39 38 37 39 41 42 42 43 45 46 47 46 45 43 42
45 48 50 51 51 51 48 43 38 35 35 36 36 36 35 37 39 39 41 42 44 46 46 45 43 40 38
48 49 50 49 46 41 38 36 37 35 36 35 37 37 38 40 39 38 37 38 39 41 42 42 40 37 35
48 47 46 41 38 35 34 35 37 38 42 42 42 42 40 38 36 34 33 33 35 37 37 37 35 34 34
42 39 34 31 31 33 34 37 39 41 42 47 42 43 40 37 34 30 28 29 31 35 38 36 35 35 34
32 27 27 27 30 33 34 38 41 41 40 46 42 42 39 35 32 26 23 26 31 35 34 36 38 39 39
21 21 23 26 29 32 35 39 42 43 38 45 41 41 40 33 30 25 23 23 28 29 31 33 36 39 40
15 18 20 23 26 29 33 37 40 39 36 42 41 38 41 41 33 28 25 22 25 26 29 32 34 35 37
16 19 21 23 26 29 31 34 37 38 34 37 41 39 41 41 39 32 27 25 26 25 26 27 29 31 32
17 20 23 25 27 29 30 31 30 30 32 31 34 36 39 39 42 35 34 27 23 25 26 25 25 26 27
18 21 23 25 27 30 30 30 28 24 26 30 32 35 36 36 37 35 32 34 28 26 29 27 25 25 25
21 23 25 26 27 30 31 31 32 30 25 25 29 32 34 37 35 30 28 25 27 28 28 27 23 25 26
22 24 26 27 28 29 31 32 33 31 30 30 30 30 30 28 31 27 24 28 27 27 27 26 20 18 19
22 24 27 28 30 32 32 33 32 33 30 30 32 35 37 34 26 32 34 29 27 24 22 21 17 13 14

GFSFLT2_700_spd_057.txt.gz
Wind_Speed
48 43 40 42 43 43 46 50 51 50 52 54 57 58 59 58 57 54 51 48 46 44 43 43 43 42 42
41 41 42 41 42 45 48 49 50 51 52 54 55 54 51 47 46 46 45 44 43 43 43 42 42 41 41
40 39 40 42 44 45 47 48 49 49 49 48 45 41 40 40 42 43 43 44 45 45 45 43 42 42 41
42 42 42 42 45 48 48 47 47 40 39 37 35 35 36 38 42 43 44 46 47 47 47 46 45 44 43
40 42 43 44 46 46 47 45 38 30 30 29 31 33 34 38 40 41 42 44 45 45 44 44 43 43 41
41 42 44 43 45 43 41 35 31 26 31 31 32 34 36 36 35 36 36 37 37 38 38 39 40 39 37
42 41 42 40 41 36 30 30 29 28 34 36 34 36 34 32 31 32 34 34 34 35 37 38 39 37 35
41 41 39 34 29 26 26 28 29 29 35 41 34 35 33 28 26 27 28 30 32 34 37 39 40 37 36
34 31 27 23 24 26 28 31 34 31 33 38 33 33 26 21 21 21 22 25 29 33 36 38 39 39 39
19 17 17 19 23 27 29 32 35 34 35 36 32 35 31 19 19 21 21 24 26 29 33 35 36 38 37
11 13 16 19 22 25 28 32 33 32 35 40 35 34 36 35 23 23 22 23 25 26 29 32 34 36 36
11 13 15 18 22 24 26 29 32 34 33 37 38 38 38 35 31 27 26 27 27 25 27 28 28 31 32
13 16 17 19 22 23 25 27 27 29 32 36 38 37 38 38 40 33 34 22 24 27 26 25 24 26 26
14 16 17 20 22 25 25 26 25 24 27 32 34 37 37 37 38 35 29 31 24 25 27 25 25 27 27
16 16 18 20 22 25 28 29 31 30 27 28 32 34 33 34 34 30 27 24 26 26 25 22 19 22 24
17 18 19 21 23 25 29 32 33 33 32 31 32 31 29 28 28 23 21 23 21 20 19 18 11 13 14
18 19 21 23 26 28 30 32 32 34 33 32 32 35 35 32 22 27 25 21 20 18 17 16 14 11 12

GFSFLT2_700_spd_060.txt.gz
Wind_Speed
51 49 45 44 44 47 45 45 48 47 47 50 51 53 54 56 57 59 58 56 55 52 49 47 47 46 47
43 41 41 40 43 45 46 47 48 46 48 51 52 53 54 55 55 54 50 46 44 43 43 43 44 45 46
40 39 41 43 45 45 44 44 45 45 48 50 51 51 49 47 45 41 40 41 43 44 46 48 48 49 48
37 43 45 42 41 42 43 44 44 44 47 47 43 40 37 37 37 39 41 44 47 48 48 47 47 48 48
42 41 40 40 42 43 45 45 43 42 40 35 34 32 34 36 37 40 42 44 45 44 43 42 41 42 43
41 41 41 42 43 42 41 40 35 26 28 24 29 31 33 35 33 36 38 40 40 38 38 38 40 41 43
42 40 41 39 39 34 30 26 23 25 29 30 31 33 31 28 30 33 35 37 37 36 37 38 38 39 41
42 37 33 29 25 21 20 23 24 25 32 35 30 31 27 24 25 28 32 35 37 37 36 37 38 37 39
24 20 17 15 16 18 22 25 27 24 29 33 30 34 26 22 22 24 27 30 33 35 37 38 38 40 40
9 8 10 13 17 21 24 27 30 29 34 31 29 36 31 20 21 23 25 27 31 34 35 37 37 39 40
6 10 13 16 19 22 25 27 28 29 34 38 32 33 35 33 20 24 26 27 31 31 32 35 36 37 37
9 11 14 17 18 21 25 27 28 29 30 37 39 38 38 35 32 25 26 28 29 30 30 29 30 31 32
11 13 15 16 19 20 23 25 26 28 31 35 39 39 38 38 38 31 34 25 25 26 27 28 29 30 31
13 15 15 16 20 22 23 25 26 27 30 33 35 38 36 35 37 36 32 33 27 27 29 26 26 27 28
14 15 16 16 19 23 26 28 30 29 27 31 36 38 36 33 32 32 33 28 28 25 24 21 18 21 23
16 16 16 18 19 23 27 30 31 30 30 31 34 35 33 31 29 27 23 25 23 21 21 19 13 17 16
18 17 17 19 22 23 26 28 29 31 31 33 36 39 39 35 28 26 29 25 25 23 24 24 22 18 21

GFSFLT2_700_spd_063.txt.gz
Wind_Speed
46 46 45 50 44 42 40 43 43 43 43 47 49 50 50 48 49 50 51 51 52 52 52 51 49 46 45
44 46 43 39 41 39 38 40 42 44 47 46 45 47 47 48 49 49 50 50 49 48 46 44 42 41 42
44 39 40 38 38 40 42 43 43 43 44 45 46 46 48 47 46 45 44 42 40 40 41 42 43 44 45
37 35 35 38 42 43 42 43 42 42 44 45 44 43 41 39 37 36 36 38 40 43 45 44 43 40 38
33 36 40 42 44 44 44 44 40 41 40 36 35 32 30 31 33 36 39 42 44 44 43 42 38 34 33
36 38 41 42 42 40 35 30 24 22 24 20 27 27 30 32 33 36 38 40 41 42 41 37 34 33 35
39 41 38 34 25 19 18 16 16 21 26 23 28 29 29 28 29 32 35 37 38 38 38 37 36 35 35
35 28 21 14 10 10 12 16 18 22 29 29 28 28 26 24 26 29 32 34 36 37 38 38 37 36 36
21 13 10 8 9 11 15 18 19 21 26 29 28 30 23 20 22 24 27 30 32 34 36 38 40 38 38
12 9 8 10 13 16 17 18 22 22 29 26 27 33 28 18 20 23 25 27 29 31 35 38 39 40 38
10 9 11 13 15 18 19 20 23 24 30 34 29 31 34 31 21 23 27 27 28 29 34 36 36 36 35
12 12 14 16 18 19 21 23 24 26 29 34 36 35 36 35 31 24 25 28 28 29 30 30 30 31 32
14 15 16 18 20 20 21 23 23 25 29 32 36 35 36 37 37 30 32 27 27 28 27 25 26 27 27
16 17 19 19 20 21 21 24 24 24 27 32 32 35 36 37 38 34 31 34 33 29 29 26 24 25 24
17 19 20 21 21 22 24 25 26 26 24 28 32 35 36 38 36 31 31 32 31 30 29 25 20 20 22
18 19 20 21 21 23 25 26 26 27 28 28 30 33 34 35 32 28 29 28 26 26 26 27 20 19 24
19 20 21 20 21 23 24 25 25 27 28 30 32 36 38 39 35 31 29 27 30 29 28 28 26 20 24

GFSFLT2_700_spd_066.txt.gz
Wind_Speed
33 34 38 39 42 41 40 35 36 37 36 36 38 41 43 44 45 44 44 46 46 47 47 47 46 45 44
33 37 40 38 39 38 34 35 32 35 38 39 40 42 41 42 43 44 45 46 47 46 45 44 43 41 40
34 40 39 37 33 34 33 34 35 37 38 39 41 40 41 42 42 42 41 41 40 39 37 36 36 37 38
38 39 33 32 30 33 35 35 36 40 40 39 36 32 29 28 29 29 30 32 33 35 36 37 37 37 37
32 28 29 31 32 34 36 36 33 31 23 20 18 19 23 26 29 32 34 35 37 37 36 35 34 34 33
28 30 32 34 36 36 32 23 13 15 10 17 20 21 25 27 29 31 33 35 36 36 35 34 32 30 28
33 36 37 36 31 25 15 10 11 15 16 14 21 21 23 23 27 29 32 34 35 34 34 33 31 30 28
36 35 32 28 20 13 11 11 13 16 21 16 20 19 18 19 24 27 30 32 33 34 34 35 34 32 32
31 28 23 16 12 12 13 13 13 17 23 22 21 22 16 16 21 25 29 31 31 31 32 33 34 36 35
23 20 15 13 12 13 14 16 17 16 23 21 20 25 22 14 15 20 25 28 30 30 31 33 34 36 35
17 15 13 13 13 15 17 17 18 19 23 26 21 23 25 26 18 22 26 27 29 28 29 30 31 33 31
13 13 13 14 16 18 19 19 18 19 22 26 26 27 28 28 27 24 26 28 29 27 27 27 26 26 27
13 14 16 17 20 21 21 21 19 20 23 27 28 27 29 30 31 28 32 26 27 28 29 26 22 23 22
16 17 18 20 21 23 22 23 21 20 24 25 28 29 29 29 31 31 33 35 29 26 28 25 24 24 24
17 18 19 21 22 24 23 23 23 23 21 23 26 28 29 31 30 31 34 34 31 31 30 28 20 23 24
18 19 20 21 22 23 23 24 24 24 23 24 27 29 30 27 30 30 33 34 32 30 29 30 24 19 24
19 19 21 22 22 22 24 25 25 25 24 26 28 33 35 33 30 28 33 33 33 31 31 31 28 23 23

GFSFLT2_700_spd_069.txt.gz
Wind_Speed
38 33 30 27 24 28 31 31 33 31 30 31 31 29 32 35 36 37 38 40 41 42 41 42 42 41 42
25 21 24 26 28 27 31 34 28 27 27 29 32 31 34 36 37 38 39 40 41 41 42 42 41 39 37
20 25 32 30 30 30 28 26 27 29 30 32 32 33 35 33 30 26 25 26 27 28 28 28 29 30 31
32 31 31 28 27 24 25 27 30 32 34 33 30 23 19 15 19 23 27 30 31 32 32 32 32 32 32
27 26 25 24 25 27 28 31 34 34 30 22 12 13 15 17 21 24 27 29 30 31 30 31 31 30 30
20 25 27 28 29 31 32 32 29 23 15 14 11 14 15 18 22 25 27 30 32 31 31 30 30 29 28
29 31 33 33 34 32 28 24 19 14 12 16 11 14 14 18 21 24 27 30 32 32 32 31 29 27 27
30 31 30 29 27 25 19 15 15 15 13 12 13 14 14 17 20 24 28 31 31 32 33 33 31 29 28
25 24 24 22 18 15 13 13 14 17 18 15 16 14 14 16 19 23 28 30 31 33 33 33 32 32 29
23 22 20 17 14 13 13 13 14 18 22 19 19 20 13 11 16 20 25 30 31 32 33 33 32 32 31
20 18 16 14 13 14 15 16 17 18 22 22 18 20 19 17 10 16 21 25 28 31 32 31 30 31 31
17 16 14 13 15 16 17 18 19 19 22 25 22 21 22 19 19 16 21 23 27 28 29 30 29 29 30
15 14 15 16 18 18 19 20 20 20 22 24 25 24 23 22 22 21 25 21 27 28 28 28 27 27 27
16 17 17 18 19 20 20 21 20 20 23 24 25 25 23 23 25 24 27 30 28 28 29 27 25 27 28
16 17 18 19 19 21 22 22 21 19 21 24 25 25 26 26 25 27 29 29 31 29 28 27 20 22 24
17 17 18 19 19 21 22 22 22 22 22 23 25 26 27 25 29 28 28 30 30 30 32 33 28 22 26
17 17 18 19 20 21 23 24 24 24 24 25 27 30 31 30 25 26 29 30 31 30 32 34 32 26 25

GFSFLT2_700_spd_072.txt.gz
Wind_Speed
41 36 33 36 29 21 21 25 25 27 30 31 32 31 33 29 29 32 33 34 35 36 37 38 39 39 40
35 30 30 27 22 18 23 26 24 30 32 30 29 27 28 31 33 34 35 35 33 30 27 26 26 28 29
32 30 17 23 23 22 26 27 26 26 27 26 28 28 30 33 33 30 24 19 20 23 24 26 27 29 30
30 21 23 25 24 25 24 22 23 27 27 28 30 31 31 27 19 16 17 20 22 22 23 24 25 27 28
24 25 28 21 20 22 24 25 28 31 31 32 30 27 21 17 17 18 20 21 21 21 23 24 25 27 29
21 21 23 24 25 26 29 31 32 32 29 29 21 18 16 18 19 19 20 21 22 23 23 23 25 27 28
28 30 31 31 31 31 31 29 28 26 20 19 16 17 18 19 19 20 21 23 24 25 25 25 25 26 27
24 25 25 26 26 26 26 24 22 18 15 17 16 18 18 19 20 21 24 25 27 28 27 28 28 28 27
23 23 23 22 21 21 20 19 17 17 16 17 17 17 18 20 21 23 26 28 29 29 30 31 31 31 29
23 22 21 20 19 17 16 15 16 17 18 17 17 18 17 19 20 23 27 28 29 31 32 32 32 32 29
21 19 18 16 15 14 14 15 17 19 21 19 19 21 20 18 18 22 26 27 29 31 33 31 31 32 30
18 17 16 16 15 14 15 16 18 19 21 23 22 23 23 20 16 19 23 24 27 30 31 30 31 31 31
18 17 17 17 17 17 18 18 19 21 22 24 23 23 23 22 20 19 22 20 25 29 30 28 29 29 29
18 17 17 17 18 18 19 20 20 21 24 24 23 23 23 23 23 21 24 24 26 29 30 26 27 27 29
19 18 17 17 18 18 19 19 19 20 22 25 25 25 25 25 24 26 26 27 30 30 31 28 25 25 28
20 19 19 19 19 20 21 21 20 22 22 24 26 27 28 26 28 28 28 30 31 30 31 31 27 24 27
22 21 21 21 21 22 23 23 23 23 23 24 26 29 29 26 23 26 29 29 30 30 30 31 31 29 30

GFSFLT2_700_spd_075.txt.gz
Wind_Speed
33 35 35 37 32 32 30 20 13 18 24 25 27 28 28 30 33 33 33 31 30 32 33 33 34 35 34
30 29 25 26 30 22 18 16 19 20 25 25 26 29 31 31 31 32 32 32 32 34 35 32 27 22 22
23 20 22 25 20 21 21 20 22 23 27 27 28 29 28 29 31 34 34 35 34 30 23 21 22 22 23
20 17 19 22 25 27 21 22 21 21 24 28 30 31 31 32 34 35 34 28 22 21 21 21 21 21 21
15 16 18 20 20 21 23 25 25 26 29 32 32 33 35 34 33 28 22 21 21 21 21 20 19 19 20
23 25 25 26 28 29 30 31 31 33 33 33 32 32 29 25 20 19 21 22 21 21 20 20 20 20 21
23 23 24 24 24 25 26 27 28 29 28 29 26 26 21 18 18 20 22 22 22 23 22 21 21 20 20
23 23 23 24 23 23 23 23 24 22 21 21 18 18 17 18 20 21 23 24 25 25 25 23 22 21 21
26 26 26 24 23 21 20 20 21 18 16 15 15 17 18 19 21 23 25 27 27 27 26 25 23 23 23
25 24 23 21 20 19 18 18 18 16 14 14 17 18 20 21 23 24 26 29 29 28 28 27 27 27 27
24 23 21 20 18 17 16 15 15 16 17 16 18 20 22 21 22 24 27 30 31 31 31 30 30 31 30
24 23 21 19 18 17 16 16 16 16 19 20 20 22 23 22 20 23 28 31 32 31 32 32 31 32 32
24 23 21 21 19 18 18 18 18 19 20 21 22 22 23 22 21 21 25 26 28 29 31 31 31 32 31
25 24 22 21 21 20 19 20 20 21 22 23 23 23 22 23 24 20 24 25 24 28 31 30 30 30 30
25 24 23 23 22 22 22 21 21 22 23 25 26 26 25 25 25 24 26 25 27 29 31 31 28 28 29
26 25 25 24 24 24 24 24 23 24 24 27 28 29 30 26 26 25 25 27 28 30 31 34 30 26 29
27 27 26 25 25 25 27 26 26 26 26 28 30 33 32 29 25 27 26 27 30 30 31 32 32 27 28

GFSFLT2_700_spd_078.txt.gz
Wind_Speed
29 28 28 27 21 19 19 20 18 21 19 17 19 20 19 23 27 27 26 28 28 28 29 28 28 30 31
26 28 27 25 21 18 11 17 15 17 21 20 20 21 20 23 25 27 28 28 27 28 30 32 32 33 33
21 23 23 24 19 17 18 20 18 18 20 22 21 21 22 24 25 26 27 30 31 33 32 33 33 28 22
16 17 16 19 17 18 17 17 17 18 20 21 22 23 25 28 30 32 33 35 36 36 33 26 22 20 21
19 19 21 22 22 23 24 24 24 25 26 26 27 29 31 32 33 35 37 36 33 26 20 20 20 21 21
20 21 21 22 22 22 22 23 26 25 27 28 28 29 30 30 30 30 29 23 18 18 19 20 20 20 20
22 22 23 23 23 23 23 23 23 23 23 24 24 25 25 23 21 18 17 17 18 19 19 20 21 21 20
23 24 24 24 24 24 23 22 21 20 20 20 19 18 16 14 14 15 17 19 20 21 22 23 22 22 21
24 24 24 24 25 24 22 20 19 18 18 16 16 14 12 13 15 17 19 21 23 24 24 23 22 22 20
23 23 23 23 22 22 21 20 19 18 17 13 13 14 14 15 17 19 21 23 25 26 25 24 24 23 23
24 24 25 25 24 23 22 21 21 20 17 14 13 16 17 18 19 21 22 25 26 28 27 27 27 26 25
24 25 26 26 25 24 23 22 20 19 20 18 15 18 19 20 19 21 26 27 28 29 29 30 29 29 29
24 25 25 25 25 24 23 22 21 21 21 21 20 20 21 21 21 21 23 25 29 30 31 32 31 31 30
26 26 26 26 25 25 23 23 21 22 24 24 23 23 23 24 23 20 24 26 27 29 32 31 31 31 31
28 28 28 27 26 25 24 23 22 23 25 28 27 25 26 26 25 25 25 27 27 29 33 32 29 29 30
28 29 28 28 27 26 26 25 23 24 25 28 30 30 29 27 30 27 27 26 27 30 32 33 27 25 28
29 29 29 28 27 27 27 27 26 26 26 29 31 35 34 31 27 30 29 28 30 31 31 32 31 24 28

GFSFLT2_700_spd_081.txt.gz
Wind_Speed
21 19 18 20 18 19 20 20 12 16 15 15 16 18 19 20 20 19 18 18 20 22 24 25 24 24 24
16 16 16 18 18 19 17 16 19 19 19 18 20 23 23 24 21 22 21 21 23 25 24 24 24 25 27
15 15 14 14 14 16 14 14 14 14 12 12 14 15 16 18 20 21 20 21 22 24 26 27 27 29 31
14 15 16 16 17 18 19 19 19 18 19 19 21 22 23 23 24 24 25 26 28 29 29 30 30 31 29
16 18 18 19 19 19 20 20 21 22 23 22 22 22 23 24 25 27 28 29 30 29 27 26 24 21 21
19 20 20 20 20 21 22 22 22 23 23 23 23 23 23 23 23 24 23 22 22 20 16 14 16 18 19
19 20 20 20 20 21 21 22 22 21 21 21 19 20 20 21 21 21 19 16 13 13 13 15 17 18 19
19 20 20 20 20 21 21 21 21 20 19 19 19 18 17 16 15 13 13 13 14 15 16 18 19 20 20
19 20 20 20 20 20 21 21 20 20 19 19 19 18 16 15 14 14 15 15 17 18 19 19 20 20 20
19 19 19 19 20 21 22 22 22 21 21 18 19 18 16 15 15 16 18 19 20 21 21 21 21 21 20
19 19 20 20 21 22 22 22 23 23 21 20 19 20 18 17 17 19 18 21 22 22 23 23 24 23 22
21 21 21 22 23 23 23 23 22 23 24 22 19 21 21 20 18 21 23 22 23 24 24 24 24 23 23
22 23 23 24 24 24 24 24 24 25 25 24 23 22 22 22 20 20 23 23 27 27 28 27 26 26 26
23 24 24 24 25 25 25 25 24 25 27 26 25 24 23 23 22 21 25 24 27 29 30 30 30 30 30
25 25 25 25 25 26 25 25 24 25 27 29 28 27 26 25 23 26 25 26 28 29 32 31 31 31 32
26 25 25 25 25 26 26 26 25 25 26 28 30 31 30 26 27 26 27 29 31 30 32 33 28 29 30
26 26 25 25 25 25 27 28 27 27 26 28 30 34 34 31 27 29 28 31 33 32 33 34 32 27 29

GFSFLT2_700_spd_084.txt.gz
Wind_Speed
14 13 14 12 13 13 15 16 16 17 18 18 20 20 20 20 23 25 23 21 19 20 21 22 22 21 22
13 11 12 11 11 12 13 11 11 12 13 15 17 20 22 25 25 25 22 23 23 23 23 23 20 20 20
9 11 12 12 14 15 16 16 16 16 18 19 18 18 19 21 21 21 22 24 24 24 23 23 23 23 23
13 14 14 15 17 17 18 19 20 20 20 20 21 22 23 24 25 25 26 27 28 27 27 28 28 27 28
15 16 17 18 19 19 19 20 20 22 23 24 24 24 23 23 23 24 25 26 26 27 27 27 25 25 26
18 18 18 19 19 20 20 20 21 23 23 23 24 23 23 23 23 23 25 25 23 22 21 20 18 17 16
17 17 18 18 18 18 18 18 19 20 21 21 21 21 22 22 23 23 24 23 22 19 15 13 14 15 16
17 17 18 18 18 18 18 18 19 19 20 20 20 21 22 22 22 21 20 19 18 17 16 16 17 17 18
16 16 17 17 17 17 18 18 19 19 20 21 22 21 21 21 21 20 19 19 19 19 19 19 19 20 21
16 16 16 17 17 18 19 19 20 20 21 21 22 22 22 21 21 21 21 21 21 22 21 21 21 22 22
17 17 17 18 18 19 20 21 22 23 21 22 23 23 23 22 21 22 22 23 24 24 23 24 24 25 24
18 18 18 19 20 21 21 22 23 24 25 24 23 24 23 23 22 24 26 26 26 25 25 25 26 26 25
19 20 21 21 21 22 22 23 24 26 26 26 25 25 24 23 23 24 27 28 30 28 27 27 26 26 26
21 23 24 23 23 22 23 23 24 26 27 27 26 26 26 25 24 24 28 28 30 32 31 29 29 30 30
24 26 26 25 24 24 24 24 25 26 28 29 28 27 27 27 25 26 28 29 32 33 33 32 30 30 32
27 28 27 26 25 25 26 26 26 27 27 29 30 31 31 28 27 27 28 30 33 35 35 35 30 30 32
28 29 27 25 25 26 27 28 28 27 27 28 30 32 32 31 28 25 29 31 35 35 37 38 36 30 33

GFSFLT2_700_spd_087.txt.gz
Wind_Speed
15 12 12 11 10 11 10 12 12 12 13 14 17 18 19 20 20 23 25 27 29 26 21 20 22 24 22
10 11 10 11 11 12 14 14 14 15 15 17 18 19 18 16 18 22 23 21 22 22 23 20 20 22 23
8 10 11 13 14 16 17 18 17 18 18 18 19 19 20 20 21 22 24 26 26 24 24 24 23 23 21
11 13 15 16 18 19 20 20 20 20 20 21 21 21 21 21 22 23 24 25 25 26 27 27 27 27 27
15 16 17 18 20 20 20 20 20 21 21 21 22 22 21 22 22 22 22 22 23 23 25 27 28 28 27
16 17 17 18 19 19 19 20 19 20 19 20 20 20 20 20 21 21 22 24 25 26 26 25 24 25 25
16 17 17 17 17 17 17 17 18 18 18 18 18 18 19 19 20 21 23 25 26 26 25 24 22 20 17
17 18 18 17 17 17 17 17 17 17 18 18 18 18 19 19 20 21 22 24 24 24 24 22 20 19 18
17 18 18 17 17 17 17 17 18 18 19 19 19 19 19 20 21 22 22 23 24 24 24 23 23 22 21
16 17 18 18 18 18 18 19 20 19 20 20 21 21 21 21 22 23 23 24 25 24 24 25 25 25 25
16 17 17 18 18 19 20 21 21 21 20 21 22 24 24 23 23 24 24 25 25 26 26 26 26 27 27
18 18 19 19 20 21 22 22 22 23 22 22 23 25 26 25 24 25 27 26 26 27 26 26 27 28 28
20 20 21 21 22 24 24 23 23 24 24 25 25 26 26 26 25 25 27 27 29 30 29 28 27 28 29
22 23 23 24 26 26 26 25 24 25 26 27 27 27 27 27 26 24 27 27 28 31 32 31 30 30 29
25 25 25 27 27 27 26 26 25 26 27 28 28 28 28 28 26 26 27 28 29 31 33 33 32 32 31
27 27 28 28 29 27 26 26 25 26 28 29 29 29 29 26 27 26 28 30 31 33 34 34 31 32 34
28 29 30 30 29 27 26 26 27 27 28 29 30 31 31 29 26 25 27 31 32 32 33 34 34 29 32

GFSFLT2_700_spd_090.txt.gz
Wind_Speed
19 16 13 11 10 10 11 11 12 12 13 13 14 14 14 13 13 15 17 22 24 23 20 19 18 19 19
14 11 9 8 9 11 13 14 15 15 14 15 16 16 16 16 16 16 15 16 17 20 20 18 16 17 17
8 9 9 10 12 14 15 16 17 18 18 18 18 17 17 17 17 18 18 19 19 20 21 20 19 20 20
10 10 11 12 15 16 16 17 18 18 18 19 19 18 18 17 17 18 18 18 18 19 20 20 21 21 20
12 12 13 15 16 16 16 16 18 18 18 18 18 17 17 17 17 18 17 17 16 17 18 20 21 22 24
13 13 14 14 15 16 17 16 16 17 16 16 16 16 16 17 17 18 18 18 19 20 21 21 21 21 20
14 13 14 15 16 17 17 17 15 15 15 15 15 15 16 17 18 19 19 20 20 21 22 22 22 23 22
14 14 15 16 17 17 17 17 16 15 15 15 16 16 16 17 18 19 19 20 21 21 21 22 22 22 21
14 14 15 16 17 17 17 17 16 17 17 17 17 17 17 18 18 20 20 21 21 22 22 22 22 22 22
14 14 15 15 16 17 18 18 18 18 20 19 19 19 18 20 20 21 21 22 22 22 23 23 23 23 23
14 14 16 16 17 18 18 19 20 20 20 20 20 21 21 21 23 22 22 23 22 23 23 24 24 24 25
14 16 17 17 18 20 21 21 22 23 21 21 21 21 22 22 23 23 24 24 23 23 24 25 25 25 26
16 17 18 19 20 22 23 24 24 24 23 22 22 23 24 24 22 24 25 26 26 25 26 26 26 26 26
19 19 20 21 22 24 25 26 25 25 24 23 23 24 25 25 24 24 26 24 26 27 28 28 28 27 27
21 21 21 22 24 26 27 27 25 24 24 24 25 26 26 26 25 27 26 26 27 28 29 29 28 29 29
23 23 23 24 26 28 28 28 26 25 23 24 26 27 27 25 27 25 26 28 29 29 31 31 26 28 31
27 26 26 29 29 30 31 29 27 25 25 25 26 27 27 25 23 27 26 29 30 29 31 33 32 25 30

GFSFLT2_700_spd_093.txt.gz
Wind_Speed
21 20 19 17 14 13 11 10 8 9 9 10 10 9 9 10 12 13 13 14 14 16 16 17 18 16 16
20 18 15 13 12 11 12 12 11 11 11 12 13 12 11 12 13 15 15 15 16 17 18 18 17 17 17
16 13 11 12 12 13 14 14 13 13 13 13 13 13 13 13 14 15 16 17 17 17 17 17 16 16 16
13 12 12 13 14 14 15 15 14 13 14 14 14 13 13 14 14 15 15 16 16 16 16 16 16 16 16
13 13 14 15 15 14 14 14 14 14 13 13 13 12 13 12 13 14 14 14 14 14 15 16 17 17 17
13 14 14 14 13 13 13 13 14 14 13 13 13 12 12 12 13 14 14 14 14 15 16 16 17 17 17
13 14 13 13 14 14 14 13 14 14 13 13 13 13 13 14 15 15 15 15 16 16 16 16 17 17 17
13 12 13 13 13 13 13 13 13 13 13 14 14 15 15 16 16 16 16 17 17 18 18 18 18 18 18
13 12 12 13 13 12 13 13 14 14 14 16 17 17 17 17 17 18 18 19 19 19 19 20 19 19 19
13 12 12 12 12 12 12 13 14 16 16 17 17 18 18 18 18 19 20 21 22 21 21 21 21 21 21
13 13 13 12 13 13 13 14 15 16 18 18 19 19 18 19 20 19 21 22 22 23 23 23 23 23 22
15 14 14 14 14 14 16 17 18 19 20 21 21 20 20 19 20 21 22 23 23 24 24 24 25 24 24
16 17 16 17 17 17 18 19 21 22 22 21 22 21 20 20 19 23 25 25 24 25 24 24 25 26 25
18 19 19 19 19 19 20 21 23 24 24 22 22 21 21 20 20 23 25 25 27 27 25 25 25 26 27
20 21 22 22 21 21 22 23 24 25 25 24 22 21 21 21 22 24 25 25 27 27 27 25 26 27 28
23 23 23 23 23 24 24 27 30 29 27 25 24 22 21 21 23 23 25 26 27 27 28 26 23 26 29
25 25 25 25 26 27 29 32 29 28 28 26 25 24 22 21 22 26 25 27 28 28 29 30 25 23 27

GFSFLT2_700_spd_096.txt.gz
Wind_Speed
28 23 22 22 21 17 14 11 10 9 9 11 10 9 8 10 10 11 12 13 16 18 21 19 18 17 18
24 22 21 20 17 15 12 11 11 12 12 12 13 12 11 12 13 13 13 13 13 15 16 18 19 19 18
23 21 20 16 14 12 12 13 13 14 14 14 13 13 13 14 14 14 14 14 15 15 16 17 17 17 16
22 19 15 14 12 13 13 14 14 15 14 13 12 12 13 13 13 13 13 14 15 15 16 16 16 15 15
18 15 13 13 14 13 14 15 14 14 13 12 12 11 11 11 12 12 12 12 13 14 15 15 15 15 16
15 14 14 13 14 14 13 14 13 13 13 12 12 11 11 11 11 11 11 11 12 13 14 15 16 16 16
16 14 14 13 14 13 13 15 14 13 12 12 11 12 12 12 13 13 12 12 13 14 15 16 17 17 17
15 14 14 13 14 14 14 14 13 12 13 13 12 13 14 15 15 14 13 13 15 16 18 19 20 19 19
15 14 14 14 14 14 14 13 13 13 14 14 14 15 16 17 16 16 15 16 16 18 20 21 21 20 20
15 15 14 14 14 14 13 12 13 14 14 15 16 16 17 18 18 18 17 18 18 18 20 20 20 20 21
16 15 15 15 14 13 13 13 13 13 15 16 17 18 19 20 20 20 20 19 20 21 22 22 23 23 22
16 15 16 15 14 14 15 15 15 16 17 18 18 19 21 22 21 21 22 21 22 23 23 23 24 25 24
17 17 17 16 16 17 18 18 18 18 19 19 19 20 21 22 22 23 23 23 23 25 24 23 25 25 25
19 19 19 18 19 20 20 20 20 20 21 21 22 21 21 22 21 24 24 24 26 26 24 24 25 25 26
21 21 21 21 22 22 23 22 22 22 23 25 26 24 22 22 21 22 23 25 26 26 24 24 26 26 27
23 23 24 24 24 24 25 25 24 25 28 30 26 25 23 22 22 23 23 25 26 26 25 23 24 28 28
25 26 26 27 26 27 26 26 26 31 33 28 28 26 23 22 24 23 24 25 26 25 26 25 21 25 28

GFSFLT2_700_spd_099.txt.gz
Wind_Speed
36 33 29 28 24 22 20 18 15 11 10 9 9 9 9 8 9 11 13 17 23 27 29 30 33 31 23
33 29 27 23 22 21 19 16 14 12 11 11 12 12 12 12 12 13 13 14 16 17 19 21 21 21 19
30 27 24 22 20 18 16 14 13 12 13 12 14 14 14 15 15 14 15 15 16 16 16 17 18 18 18
27 25 22 20 17 15 14 13 13 13 14 14 14 15 15 15 16 15 15 16 16 16 16 16 17 17 16
24 22 19 16 15 14 13 14 14 14 13 13 14 14 15 15 14 14 14 14 14 14 14 15 15 16 16
21 18 17 16 15 14 13 14 14 14 13 14 14 14 14 14 13 13 13 13 13 13 14 14 15 15 16
19 18 17 15 14 14 15 14 14 14 14 14 13 14 13 13 12 13 12 13 14 13 14 14 15 16 17
17 18 16 15 14 15 15 14 14 14 14 14 13 14 14 13 14 14 13 14 14 14 14 15 16 18 19
17 17 14 15 15 15 14 13 13 13 14 14 14 15 14 15 16 15 15 16 16 16 16 16 17 18 20
16 15 14 16 15 14 13 14 13 14 14 13 14 15 15 17 17 17 17 18 18 18 18 18 18 19 20
16 16 15 16 15 14 14 14 13 13 14 14 15 15 17 18 19 19 19 20 20 20 20 19 20 21 21
15 16 18 18 16 16 16 15 15 15 16 16 17 18 18 18 20 21 21 21 21 21 21 21 21 23 23
21 23 20 18 18 19 18 18 17 19 19 19 19 20 20 21 22 23 22 22 21 22 21 22 23 23 23
23 21 20 21 21 21 21 20 21 21 20 21 21 21 21 24 24 26 24 23 22 22 22 24 24 24 25
24 24 23 23 23 24 24 23 22 23 22 23 24 24 27 27 24 26 26 24 24 23 23 23 24 24 24
26 25 25 26 26 26 25 25 25 25 25 26 27 28 29 25 25 26 26 27 26 25 24 21 23 25 24
27 27 28 29 29 28 27 27 27 28 28 28 29 34 30 24 26 25 27 28 28 26 24 21 20 25 27

GFSFLT2_700_spd_102.txt.gz
Wind_Speed
37 37 32 30 29 27 24 22 20 17 15 13 11 10 8 7 8 11 13 13 13 21 24 22 21 22 25
36 34 31 29 25 23 21 21 18 16 15 13 13 12 10 10 11 13 14 16 22 28 27 28 26 29 27
32 31 28 25 23 22 21 19 16 16 15 15 14 14 13 13 14 13 14 16 18 20 20 21 22 22 20
29 27 26 23 21 20 19 16 15 15 15 15 15 15 14 15 14 14 15 17 17 18 18 19 19 18 17
25 24 23 21 20 19 16 15 14 15 14 15 15 14 14 15 14 14 15 15 16 16 16 16 16 15 15
22 21 21 20 18 16 16 16 15 15 15 15 15 14 14 14 13 14 15 14 14 15 15 15 14 14 14
21 21 18 17 17 16 16 16 15 15 15 14 15 15 14 13 13 14 14 14 14 15 15 15 14 14 14
21 19 18 16 17 16 16 15 15 14 14 14 15 14 14 13 14 14 14 15 15 16 16 16 15 15 15
18 17 17 17 15 15 15 14 13 13 14 14 14 14 13 14 15 15 15 16 16 17 17 17 17 16 16
15 15 15 14 13 13 13 13 13 14 13 12 13 13 13 14 15 15 16 17 18 19 19 19 19 18 17
15 14 14 15 12 12 12 15 14 14 12 12 13 13 13 14 15 16 17 18 19 21 21 21 20 20 19
14 11 13 11 12 17 16 16 14 14 13 14 15 15 15 15 15 16 17 18 21 22 22 22 22 22 21
16 19 17 17 18 18 17 16 15 19 17 17 18 17 17 17 16 17 18 20 20 21 22 23 24 23 22
18 14 15 20 21 20 18 18 19 20 20 20 20 20 20 20 20 22 24 24 23 22 22 23 24 23 23
17 17 23 22 21 20 21 22 22 22 21 22 23 23 23 23 23 26 26 24 24 24 22 23 24 23 23
19 22 23 25 25 25 24 24 24 25 25 25 25 25 26 26 26 28 29 26 24 24 24 23 25 24 23
26 29 29 27 27 27 27 27 27 28 29 28 27 28 28 28 30 31 30 28 24 24 24 24 24 27 24

GFSFLT2_700_spd_105.txt.gz
Wind_Speed
38 36 32 29 29 28 27 26 23 20 20 18 15 13 12 10 11 12 13 14 15 17 18 19 21 20 22
34 33 31 28 26 26 25 23 20 20 19 17 16 14 14 12 12 13 15 16 18 18 13 20 26 23 20
31 31 29 27 25 24 23 21 20 20 18 17 16 15 16 13 14 14 16 20 25 23 26 27 30 31 27
29 28 27 25 23 22 21 21 20 18 17 17 16 16 16 15 16 16 17 18 20 23 25 25 26 24 23
28 27 25 23 21 21 21 20 18 17 16 16 16 17 16 15 16 16 18 18 20 21 21 21 21 19 19
27 24 23 22 21 20 19 18 16 17 16 16 16 17 16 15 15 16 16 17 18 19 19 19 18 17 17
24 23 22 20 20 18 16 17 16 16 15 15 16 15 15 14 15 15 15 16 16 16 16 16 15 15 15
22 21 20 19 18 17 16 15 15 15 15 15 15 13 13 13 13 14 15 15 15 15 16 16 16 15 16
19 19 18 17 16 15 14 14 16 14 14 13 12 11 11 12 14 15 15 15 16 16 17 17 17 17 17
15 15 14 14 14 15 13 12 12 10 10 9 11 14 13 14 15 14 15 16 17 18 18 19 19 19 19
13 13 14 14 14 12 13 12 9 8 13 15 13 10 13 13 13 14 14 15 17 18 19 20 21 21 22
13 15 15 14 13 12 10 9 11 14 16 14 13 13 12 13 13 14 14 15 16 17 19 21 22 23 24
16 15 13 12 12 13 13 12 17 17 14 15 18 19 15 13 16 16 16 14 14 17 19 21 23 24 24
20 18 17 17 16 16 18 20 18 17 15 19 20 20 20 20 19 20 19 18 19 19 21 23 24 25 25
17 18 20 19 18 17 19 19 18 19 21 21 21 21 21 21 21 22 22 22 21 21 20 23 25 25 25
19 20 20 19 21 22 20 20 19 23 24 23 23 23 24 24 24 25 25 25 25 24 22 23 26 26 25
20 20 20 21 21 24 25 26 27 28 27 27 25 26 26 25 27 27 27 27 30 29 25 23 24 26 26

GFSFLT2_700_spd_108.txt.gz
Wind_Speed
35 33 33 31 30 29 29 29 28 24 24 22 18 18 16 14 12 12 12 12 14 17 21 21 22 25 16
33 33 32 30 28 28 27 27 26 24 23 20 17 17 16 14 12 12 12 15 17 18 17 17 22 20 22
31 30 30 30 28 28 27 26 25 24 22 20 17 18 17 15 14 14 16 18 16 18 20 17 21 21 24
30 29 28 28 28 27 26 25 23 22 21 19 16 18 17 17 16 19 23 24 26 24 24 26 25 24 26
28 28 28 28 27 26 25 23 21 20 19 17 17 16 17 18 18 18 20 21 25 30 29 28 30 31 32
28 27 27 26 25 24 23 21 20 18 17 16 16 16 16 16 17 18 20 21 22 24 27 29 27 26 24
27 25 25 24 22 21 20 19 17 16 15 15 14 15 15 16 17 18 18 19 21 22 23 23 23 22 21
24 23 21 21 20 19 18 17 14 14 14 13 14 13 16 16 15 16 16 17 17 18 19 19 19 19 19
22 20 19 19 18 17 17 15 14 13 12 13 14 13 13 13 13 14 13 14 16 16 16 17 18 18 18
19 18 17 17 16 15 15 15 15 14 14 13 11 9 10 11 12 13 14 16 16 17 17 17 18 18 19
16 15 15 15 15 15 15 15 14 13 13 12 11 10 11 13 14 14 15 16 17 18 18 18 19 20 21
13 13 15 14 14 14 14 14 13 15 13 12 12 14 17 18 15 14 13 14 15 17 18 19 21 22 22
14 14 14 15 15 15 13 12 12 14 12 15 16 18 17 15 14 20 16 15 15 16 17 17 20 22 24
16 15 15 16 15 15 15 15 15 15 17 18 17 16 18 18 18 16 17 18 19 19 19 19 21 23 25
16 17 18 20 19 18 18 18 17 20 21 21 21 21 21 21 22 23 23 22 23 22 22 21 21 23 25
16 17 16 16 17 19 21 19 20 22 21 21 22 22 23 24 24 25 24 24 25 25 25 24 24 26 27
17 16 17 20 22 23 24 22 21 22 23 23 25 26 27 27 27 27 27 27 27 27 28 27 29 30 28

GFSFLT2_700_spd_111.txt.gz
Wind_Speed
34 34 35 33 32 31 30 30 30 29 29 28 23 23 20 18 16 12 11 10 12 14 18 20 20 38 29
34 34 34 33 31 30 30 29 28 28 28 25 20 21 18 14 13 11 11 11 12 14 20 23 25 26 21
34 32 32 32 31 29 28 28 28 27 27 24 18 20 17 14 13 12 8 12 17 15 14 16 19 21 18
33 30 30 30 30 29 28 26 26 25 24 21 18 18 15 14 15 17 18 19 21 15 18 23 23 18 20
33 33 32 30 28 28 27 25 23 23 21 19 17 15 14 15 15 16 23 28 29 26 28 21 21 25 28
32 31 31 30 29 26 25 22 22 20 18 16 15 14 14 14 15 16 21 27 27 29 33 29 28 27 25
31 30 28 27 27 24 23 21 19 18 16 13 12 12 12 13 14 16 17 21 23 24 26 29 31 29 30
29 28 26 25 24 22 21 19 17 16 13 12 12 11 12 12 12 13 13 17 19 23 24 24 25 26 25
25 25 24 22 21 20 18 17 15 14 12 11 11 11 10 10 10 13 16 17 17 18 18 19 20 20 20
22 21 20 19 19 18 17 15 14 14 13 13 12 11 11 11 12 11 12 13 13 13 15 17 17 18 19
20 18 17 16 16 16 15 13 13 13 14 13 12 11 12 11 13 13 12 11 13 16 18 18 18 19 19
18 16 15 15 14 14 14 13 13 13 13 13 12 11 13 14 15 16 19 17 15 17 18 17 18 18 19
17 16 15 14 14 14 14 13 13 13 14 15 16 14 15 16 17 14 15 18 16 14 14 14 15 16 17
17 17 17 15 16 15 14 14 14 13 12 12 12 15 16 17 17 15 12 12 16 16 14 16 17 17 17
18 18 17 17 17 17 16 17 17 16 16 17 18 20 21 18 19 19 19 20 19 20 20 21 21 20 19
18 16 17 16 18 20 20 21 21 20 17 18 20 20 21 22 21 21 21 22 22 23 23 24 24 24 23
15 15 14 17 18 18 17 16 18 21 22 22 21 22 23 23 23 23 23 25 25 26 26 27 28 28 26

GFSFLT2_700_spd_114.txt.gz
Wind_Speed
27 28 29 28 29 30 30 30 30 29 27 27 27 26 23 20 18 18 16 14 14 14 15 19 23 25 27
27 26 28 29 29 29 30 29 30 29 27 25 24 22 21 17 16 16 12 11 11 14 14 18 23 22 38
26 26 28 30 30 29 29 29 28 29 28 24 22 20 18 15 15 14 12 9 11 11 14 15 22 27 39
27 28 29 31 32 32 32 30 29 28 27 24 19 18 16 13 14 14 11 8 12 14 13 17 21 17 9
31 32 32 31 31 31 30 30 29 28 25 22 18 16 14 13 14 15 15 20 15 17 16 17 16 18 22
33 32 31 32 31 30 29 28 28 26 22 19 16 14 13 13 15 16 18 25 26 28 26 26 29 15 15
31 32 31 31 30 28 27 26 25 22 18 15 14 13 12 12 13 15 17 20 30 31 29 25 24 25 24
28 29 28 30 29 26 24 23 21 19 16 13 12 12 11 12 13 14 16 18 23 27 26 23 23 24 25
28 28 28 27 26 25 22 18 17 16 14 12 12 13 12 12 12 13 13 15 17 17 17 20 21 23 24
27 26 25 24 22 21 18 15 14 14 13 12 13 13 12 12 13 14 14 15 15 17 18 18 18 18 19
26 25 22 22 20 17 15 14 13 13 13 13 13 13 13 13 11 11 11 12 13 15 15 15 14 14 16
24 22 20 19 17 16 14 13 13 13 13 13 13 13 12 11 12 13 13 14 16 16 14 13 15 17 19
20 18 18 17 16 15 14 13 13 13 13 13 13 14 12 13 14 14 14 12 12 15 17 18 15 15 18
16 17 17 17 16 15 15 14 14 14 13 12 12 12 11 13 16 17 13 9 13 18 20 20 18 15 14
15 16 17 18 18 16 14 14 13 14 14 13 15 15 16 14 17 19 17 16 12 15 14 14 15 15 15
15 17 18 18 16 17 18 18 17 17 17 15 15 18 15 19 21 23 19 20 21 20 19 18 19 20 20
16 15 14 15 15 17 16 16 18 19 20 22 20 19 18 20 19 20 20 20 21 21 22 22 22 24 23

GFSFLT2_700_spd_117.txt.gz
Wind_Speed
33 29 28 27 26 26 27 27 26 27 27 27 28 28 25 24 22 21 19 17 17 16 17 19 22 24 24
27 29 28 26 26 27 27 27 26 27 27 26 27 27 25 23 21 20 18 14 14 14 16 18 19 17 23
28 26 26 27 28 29 28 28 28 29 28 26 25 25 23 22 19 18 17 11 11 11 12 13 16 18 20
27 26 27 29 30 30 29 29 28 28 26 26 25 23 21 20 18 17 15 6 8 8 8 12 16 22 24
27 28 29 30 30 29 29 29 28 26 25 25 23 22 19 18 17 16 15 10 14 13 11 9 14 18 20
29 31 31 31 29 29 29 28 27 26 24 23 20 19 17 17 16 16 15 19 21 16 15 16 12 17 16
30 31 29 30 28 28 28 27 25 23 21 20 18 17 15 15 15 16 16 17 24 19 18 20 22 14 12
29 29 27 26 26 27 26 25 23 22 18 17 17 15 14 13 14 15 16 17 20 26 25 22 24 22 24
28 27 26 26 26 25 24 22 20 19 17 15 15 14 13 13 14 14 15 17 18 20 25 29 31 29 23
27 26 26 26 25 23 21 19 18 17 16 13 14 13 13 14 14 14 15 16 17 18 19 22 24 21 18
25 25 25 25 23 20 19 17 16 15 13 13 13 13 13 14 13 14 15 14 13 14 15 17 20 17 14
24 24 25 23 21 19 16 15 15 14 14 13 13 14 14 14 12 11 11 11 11 11 14 16 17 17 15
23 22 22 20 18 17 16 15 14 14 14 14 14 14 14 15 14 13 13 12 11 13 18 18 16 15 15
22 20 19 18 18 17 16 16 15 14 14 14 14 14 15 14 13 14 16 14 13 13 15 16 19 20 20
20 18 18 18 17 17 18 17 15 15 15 15 14 13 14 13 15 17 18 19 18 13 12 13 12 16 21
19 19 18 17 18 17 17 17 16 16 16 16 16 18 19 19 19 18 17 22 22 16 20 18 18 20 18
20 19 18 16 14 15 16 16 15 17 19 20 21 22 22 24 21 17 20 23 22 21 22 22 23 22 20